Overview Statistics Trail Chart Weather Telemetry Raw packets
 

This is the latest recevied weather packets stored in our database for station/object VK6WB. If no packets are shown the sender has not sent any weather packets the latest 10 day(s).

<< 30 31 32 33 34 35 36 >>
Time Temp. Humidity Pressure Rain* Wind** Luminosity Snow
1777123205 16.11° C 57% 1017.7 hPa 0 mm - 10 W/m² -
1777122605 16.11° C 58% 1017.9 hPa 0 mm - 10 W/m² -
1777122004 16.11° C 59% 1017.7 hPa 0 mm - 10 W/m² -
1777121405 16.11° C 59% 1017.6 hPa 0 mm - 10 W/m² -
1777120805 16.67° C 58% 1017.4 hPa 0 mm - 10 W/m² -
1777120205 16.67° C 59% 1017.6 hPa 0 mm - 10 W/m² -
1777119605 16.67° C 60% 1017.6 hPa 0 mm - 10 W/m² -
1777119005 16.67° C 61% 1017.7 hPa 0 mm - 10 W/m² -
1777118404 16.67° C 61% 1017.8 hPa 0 mm - 10 W/m² -
1777117805 17.22° C 61% 1017.9 hPa 0 mm - 10 W/m² -
1777117205 17.22° C 60% 1017.8 hPa 0 mm - 10 W/m² -
1777116605 17.22° C 61% 1017.7 hPa 0 mm - 10 W/m² -
1777116005 17.78° C 61% 1017.7 hPa 0 mm - 10 W/m² -
1777115405 17.78° C 61% 1017.8 hPa 0 mm - 10 W/m² -
1777114805 17.78° C 61% 1017.4 hPa 0 mm - 10 W/m² -
1777114204 17.78° C 61% 1017.2 hPa 0 mm - 10 W/m² -
1777113605 18.33° C 61% 1017.1 hPa 0 mm - 10 W/m² -
1777113006 18.33° C 61% 1017 hPa 0 mm - 10 W/m² -
1777112405 23.33° C 61% 1016.9 hPa 0 mm - 10 W/m² -
1777111804 18.89° C 60% 1016.8 hPa 0 mm - 10 W/m² -
1777111205 18.89° C 59% 1016.7 hPa 0 mm - 10 W/m² -
1777110605 21.11° C 58% 1016.5 hPa 0 mm - 10 W/m² -
1777110005 20° C 56% 1016.2 hPa 0 mm - 10 W/m² -
1777109405 20.56° C 54% 1016.2 hPa 0 mm - 10 W/m² -
1777108804 21.11° C 52% 1016 hPa 0 mm - 10 W/m² -

* Rain latest hour (hover to see other rain measurements)
** Current wind speed in m/s (hover to see current wind gust speed)